Change the Weather History Date:

Thursday, May 22, 2014

  Actual Average Record
Temperature  
Mean Temperature 61 °F 61 °F  
Max Temperature 70 °F 72 °F 92 °F (1977)
Min Temperature 51 °F 50 °F 35 °F (2002)
Degree Days  
Heating Degree Days 4 6  
Month to date heating degree days 209 182  
Since 1 July heating degree days 7037 6325  
Cooling Degree Days 0 2  
Month to date cooling degree days 23 18  
Year to date cooling degree days 23 22  
Growing Degree Days 10 (Base 50)    
Moisture  
Dew Point 47 °F    
Average Humidity 65    
Maximum Humidity 89    
Minimum Humidity 40    
Precipitation  
Precipitation 0.00 in 0.13 in 1.10 in (1982)
Month to date precipitation 1.94 2.80  
Year to date precipitation 7.74 11.37  
Sea Level Pressure  
Sea Level Pressure 30.03 in    
Wind  
Wind Speed 11 mph (NNW)    
Max Wind Speed 24 mph    
Max Gust Speed 33 mph    
Visibility 10 miles    
Events      
T = Trace of Precipitation, MM = Missing Value Source: NWS Daily Summary

Daily Weather History Graph

Daily Weather History Graph

Search for Another Location

Airport or City:

Trip Planner

Search our weather history database for the weather conditions in past years. The results will help you decide how hot, cold, wet, or windy it might be!

Date:

Astronomy

May. 22, 2014 Rise Set
Actual Time 6:14 AM EDT 9:03 PM EDT
Civil Twilight 5:41 AM EDT 9:36 PM EDT
Nautical Twilight 5:00 AM EDT 10:18 PM EDT
Astronomical Twilight 4:12 AM EDT 11:06 PM EDT
Moon 2:41 AM EDT (5/22) 2:43 PM EDT (5/22)
Length of Visible Light 15h 54m
Length of Day
14h 48m
Last Quarter, 37% of the Moon is Illuminated
May 22
Last Quarter
May 28
New
Jun 5
First Quarter
Jun 13
Full
Jun 19
Last Quarter

Hourly Weather History & Observations

Time (EDT) Temp. Dew Point Humidity Pressure Visibility Wind Dir Wind Speed Gust Speed Precip Events Conditions
12:53 AM 66.2 °F 51.8 °F 60% 29.91 in 10.0 mi NNW 10.4 mph - N/A   Clear
1:53 AM 62.1 °F 51.1 °F 67% 29.89 in 10.0 mi NNW 8.1 mph - N/A   Clear
2:53 AM 60.1 °F 50.0 °F 69% 29.90 in 10.0 mi NNW 12.7 mph - N/A   Clear
3:53 AM 57.0 °F 51.1 °F 81% 29.92 in 10.0 mi North 10.4 mph - N/A   Clear
4:53 AM 53.1 °F 50.0 °F 89% 29.95 in 10.0 mi North 8.1 mph - N/A   Clear
5:53 AM 52.0 °F 48.9 °F 89% 29.97 in 10.0 mi North 5.8 mph - N/A   Clear
6:53 AM 54.0 °F 50.0 °F 86% 30.00 in 10.0 mi North 6.9 mph - N/A   Clear
7:53 AM 57.9 °F 51.1 °F 78% 30.02 in 10.0 mi North 9.2 mph - N/A   Clear
8:53 AM 61.0 °F 50.0 °F 67% 30.03 in 10.0 mi NNW 13.8 mph - N/A   Clear
9:53 AM 62.1 °F 50.0 °F 65% 30.05 in 10.0 mi NNW 12.7 mph - N/A   Clear
10:53 AM 64.0 °F 48.9 °F 58% 30.06 in 10.0 mi North 8.1 mph - N/A   Partly Cloudy
11:53 AM 66.0 °F 46.9 °F 50% 30.08 in 10.0 mi WNW 15.0 mph 20.7 mph N/A   Partly Cloudy
12:53 PM 69.1 °F 46.9 °F 45% 30.08 in 10.0 mi NW 17.3 mph 23.0 mph N/A   Mostly Cloudy
1:53 PM 69.1 °F 45.0 °F 42% 30.08 in 10.0 mi NW 15.0 mph - N/A   Partly Cloudy
2:53 PM 66.9 °F 45.0 °F 45% 30.09 in 10.0 mi NW 15.0 mph - N/A   Clear
3:53 PM 66.9 °F 44.1 °F 44% 30.09 in 10.0 mi WNW 20.7 mph - N/A   Partly Cloudy
4:53 PM 66.0 °F 44.1 °F 45% 30.07 in 10.0 mi WNW 19.6 mph 25.3 mph N/A   Partly Cloudy
5:53 PM 64.9 °F 43.0 °F 45% 30.06 in 10.0 mi NNW 12.7 mph 24.2 mph N/A   Clear
6:53 PM 64.4 °F 42.8 °F 45% 30.06 in 10.0 mi NW 12.7 mph - N/A   Clear
7:53 PM 64.0 °F 42.1 °F 45% 30.07 in 10.0 mi NW 10.4 mph - N/A   Clear
8:53 PM 62.1 °F 42.1 °F 48% 30.08 in 10.0 mi NW 9.2 mph - N/A   Clear
9:53 PM 59.0 °F 44.1 °F 58% 30.09 in 10.0 mi NW 6.9 mph - N/A   Clear
10:53 PM 57.0 °F 45.0 °F 64% 30.10 in 10.0 mi NW 9.2 mph - N/A   Clear
11:53 PM 54.0 °F 45.0 °F 72% 30.11 in 10.0 mi NW 5.8 mph - N/A   Clear